Wind_Speed
9 9 8 8 8 8 8 8 8 8 8 8 8 8 8 8 8 9 9 10 11 12 13 13 13 14 15 17 18 20 21 23 24 24 23 21 19 16 12 9 8 8 9 9 9 8 6 5 5 5 5 3 1 1 3 4 7 5 8 14 17 19 20 22 20 17 15 14 13 12 12 9 8 7 5 6 5 4 5 5 5 6 5 3 2 1 3 4
8 8 8 8 8 8 8 8 8 8 8 8 8 8 9 9 9 9 9 10 11 12 13 13 14 14 15 16 18 19 21 23 24 24 22 21 19 16 12 10 8 9 9 9 10 9 7 5 5 5 4 3 2 2 1 2 6 4 14 15 16 20 21 22 20 18 16 15 14 12 12 9 9 7 5 5 4 4 4 3 4 5 5 4 2 1 2 4
7 7 7 7 7 7 7 8 8 8 8 8 8 9 9 9 9 9 10 10 11 12 13 13 14 14 15 16 18 19 20 22 23 23 22 20 18 15 12 10 8 9 10 10 10 9 7 6 5 5 3 3 2 2 3 4 7 6 15 17 19 23 23 21 18 18 17 16 15 13 11 10 9 7 6 4 3 3 3 3 3 3 4 4 2 1 2 3
5 5 5 6 6 7 7 7 8 8 8 8 9 9 9 10 10 10 10 10 11 12 13 14 14 14 15 16 17 18 20 22 23 22 22 20 16 14 12 10 8 9 10 11 11 9 8 7 5 4 3 2 2 3 5 7 8 6 10 15 20 22 22 20 17 17 16 15 14 12 11 9 8 7 5 4 2 2 3 2 2 3 4 4 3 2 1 2
4 4 5 6 6 7 7 8 8 8 8 9 9 9 10 10 10 10 10 10 11 12 13 14 14 15 15 16 17 18 20 22 22 22 21 18 15 12 11 10 8 9 10 11 11 10 8 7 6 4 2 1 2 4 6 9 7 5 5 12 19 20 19 19 17 15 14 13 12 11 10 8 8 6 5 4 3 3 2 2 2 3 4 3 3 2 2 2
3 4 5 6 7 7 8 8 9 9 9 10 10 10 10 10 10 10 10 11 12 13 14 14 15 15 15 17 18 18 20 21 22 22 20 17 13 11 10 10 8 8 10 11 11 11 9 8 7 5 2 1 2 5 7 8 7 4 4 10 16 17 18 19 17 16 14 12 10 10 9 8 7 6 5 4 4 4 4 2 1 2 4 3 2 3 3 2
3 4 5 6 7 8 9 9 10 10 10 11 11 11 11 11 11 11 10 11 12 13 14 14 15 16 16 17 18 18 20 21 22 21 19 16 13 10 9 9 8 8 10 11 12 11 10 9 7 5 3 2 3 6 6 7 7 5 4 7 12 15 17 18 17 17 16 12 10 8 7 7 7 6 5 4 4 5 5 3 1 1 2 3 2 2 3 2
3 5 6 7 8 9 10 10 11 11 11 12 12 12 12 12 12 11 11 11 12 13 14 15 16 16 17 17 18 19 20 21 22 21 19 15 12 10 8 8 8 8 9 11 12 11 10 10 8 5 5 4 4 6 7 6 6 5 3 2 9 16 17 16 17 17 16 13 10 9 7 7 6 5 4 3 2 3 4 3 2 2 2 3 2 2 3 3
4 5 7 8 9 9 10 11 11 12 12 12 13 13 13 13 12 11 11 12 13 14 15 15 16 16 17 17 18 19 20 20 21 21 19 15 12 10 8 7 7 7 9 10 11 12 11 10 9 6 7 7 6 8 8 6 4 4 3 3 3 12 14 14 16 16 15 14 12 10 8 8 7 5 3 3 2 2 3 4 4 4 3 4 3 3 2 2
5 6 8 9 10 10 10 11 12 12 12 13 13 13 13 13 12 11 11 12 13 14 15 15 16 16 17 18 19 20 19 20 22 21 19 14 11 9 8 7 7 7 9 10 10 11 11 11 10 8 9 9 8 9 10 6 3 3 3 2 1 5 9 11 14 14 15 14 13 11 9 8 6 4 3 3 3 2 2 3 5 4 4 4 5 3 3 3
6 8 9 10 10 11 11 12 12 12 13 13 13 13 13 12 12 11 11 12 13 14 15 15 16 16 17 18 19 19 19 21 22 21 18 14 10 9 7 7 8 8 8 9 10 11 12 12 11 9 10 10 10 10 10 7 5 6 5 3 1 2 4 6 9 10 13 14 13 11 9 8 6 5 5 4 4 2 1 2 4 6 5 4 5 4 3 3
8 9 10 11 11 12 12 13 13 13 13 13 13 13 12 12 11 11 12 12 13 14 15 15 16 17 18 19 19 19 20 21 21 21 18 13 10 9 7 7 8 8 8 9 10 12 12 12 11 10 10 11 11 11 11 10 9 9 7 6 5 4 4 5 5 6 9 11 10 10 8 8 8 7 7 6 5 4 3 1 2 5 8 7 5 4 4 4
9 10 11 12 12 12 13 13 13 13 13 12 12 12 12 12 12 12 12 13 14 15 15 15 16 17 18 19 19 19 20 21 21 21 18 13 10 9 8 7 8 9 9 9 11 12 13 12 11 10 10 11 13 12 12 12 12 11 9 8 8 6 5 6 6 6 8 8 8 8 7 8 8 8 7 7 6 7 7 4 4 6 9 10 7 4 4 5
10 11 12 12 13 13 13 13 13 13 13 13 13 13 12 12 13 13 14 14 14 15 15 15 17 18 18 19 19 20 21 21 22 21 17 12 10 9 8 7 8 10 11 11 12 13 13 12 11 11 12 12 13 14 13 13 13 12 9 9 11 8 6 7 7 7 7 8 9 9 7 6 7 7 7 7 7 8 9 7 5 6 9 10 8 5 4 6
11 11 12 12 13 13 13 13 13 13 13 13 14 14 13 13 14 14 14 15 15 15 15 16 17 17 18 19 19 20 20 21 22 19 15 11 10 9 8 7 7 9 11 13 13 13 13 12 12 13 13 13 15 15 14 14 14 13 8 7 13 10 6 7 7 7 7 7 9 10 6 4 5 6 6 7 7 8 9 10 5 5 10 9 9 7 4 5
12 12 12 12 12 13 13 13 13 14 14 14 15 15 15 15 15 15 15 16 16 16 16 17 17 17 18 19 19 20 20 21 21 17 13 10 10 8 7 7 7 9 11 13 14 14 13 13 13 13 14 15 16 16 15 14 14 14 10 8 13 13 8 7 7 7 7 7 8 9 6 4 4 5 5 6 7 7 10 11 6 4 9 9 8 10 7 7
12 12 12 13 13 13 14 14 14 15 15 15 16 16 16 16 16 16 16 16 16 16 17 17 17 18 18 18 19 20 20 21 19 15 12 10 10 9 7 7 6 8 11 13 14 15 15 14 14 15 15 15 17 17 15 11 10 13 14 12 12 12 10 9 8 8 8 8 9 9 7 5 6 6 6 5 5 6 8 11 7 4 7 7 7 10 11 10
13 13 13 13 14 14 15 15 16 16 16 16 16 17 17 17 17 17 17 17 17 17 17 17 17 17 17 18 19 20 21 20 18 15 13 11 10 10 8 7 6 7 10 12 14 15 16 16 16 16 15 14 17 19 15 10 9 12 14 13 12 12 12 11 9 9 9 9 11 12 10 8 8 7 6 5 5 4 6 10 7 3 6 7 6 7 10 11
15 15 14 14 15 15 16 16 17 17 17 17 17 17 17 17 18 18 18 18 17 17 18 17 17 17 18 18 19 21 21 19 18 15 13 11 10 10 9 7 6 7 9 11 13 16 17 16 17 15 12 13 17 21 19 15 14 15 16 15 13 12 12 12 11 11 12 12 13 13 11 9 9 9 7 6 5 6 6 9 8 5 4 6 6 7 9 10
17 17 17 16 16 16 17 17 18 18 18 18 18 18 18 18 19 19 19 18 18 18 18 17 17 17 17 18 19 20 19 18 17 16 13 12 11 10 10 8 7 6 8 10 12 15 17 18 18 14 12 15 18 21 20 18 18 17 17 17 15 15 13 13 13 13 14 14 14 14 9 8 10 10 8 7 6 7 7 8 10 9 6 4 5 7 8 10
19 19 19 19 19 18 18 18 19 20 19 19 20 19 19 19 20 19 19 19 19 18 18 18 17 17 17 18 19 19 18 18 17 16 13 12 11 11 10 9 8 7 7 9 11 14 17 18 17 15 15 17 17 18 19 19 20 19 18 17 16 17 16 15 16 15 16 16 15 14 11 10 12 11 10 9 8 9 9 8 9 10 9 6 6 7 7 9
22 22 22 22 22 21 20 20 20 21 21 21 21 21 20 20 20 20 20 19 19 18 18 18 17 17 18 17 18 18 18 18 17 15 13 12 11 11 10 9 8 7 7 9 11 13 16 17 18 18 18 17 16 18 19 20 21 20 19 17 14 16 17 17 18 17 18 17 15 16 14 13 14 13 12 11 10 10 10 9 8 9 10 8 8 8 8 8
25 25 25 24 24 24 23 22 22 23 23 23 22 22 21 21 20 20 19 19 20 19 19 18 18 18 18 17 17 17 18 18 16 14 11 11 11 10 9 9 8 7 7 9 10 13 15 18 20 19 17 17 17 18 20 21 21 19 19 16 10 12 16 16 17 18 19 18 17 17 15 14 14 14 14 13 12 12 11 11 10 10 10 10 10 10 9 9
28 28 28 27 27 27 26 25 24 25 24 23 23 23 22 21 21 20 20 21 21 20 20 19 19 18 17 17 17 16 18 17 14 12 10 10 10 9 8 8 7 7 7 8 10 12 15 17 18 16 16 17 18 18 20 20 18 17 19 18 10 11 16 16 17 18 17 16 17 17 14 13 15 15 15 14 12 13 13 12 12 13 11 10 10 10 9 10
30 30 30 30 29 28 28 27 26 25 25 24 23 24 23 23 22 22 21 21 22 21 21 20 19 18 17 17 16 16 18 16 13 11 10 10 9 8 8 7 6 7 6 6 7 10 13 15 16 16 15 16 17 17 18 18 15 12 16 18 15 14 14 15 17 16 14 13 15 16 12 11 15 16 17 16 12 12 13 14 15 14 13 11 11 10 9 10
31 31 31 31 30 29 28 28 27 26 26 25 24 24 25 24 24 23 22 23 23 22 21 20 19 18 17 17 15 17 17 15 14 13 11 9 9 8 7 6 5 5 5 5 5 7 9 12 13 14 14 16 16 16 18 17 10 8 13 15 16 16 14 14 15 13 11 12 14 16 13 12 14 16 18 18 15 12 12 14 16 16 15 12 11 10 9 9
31 32 32 31 31 30 29 29 29 28 28 28 27 27 27 26 25 25 24 24 23 21 21 21 20 19 18 16 16 16 16 15 15 13 11 9 9 8 7 6 5 4 4 3 3 4 7 9 10 13 14 14 13 14 17 15 7 10 15 13 13 16 15 13 14 12 11 13 14 15 14 11 12 14 16 18 17 15 12 12 15 17 17 14 11 10 9 10
31 32 33 33 33 32 31 31 31 31 30 30 30 29 28 27 27 26 25 25 23 21 21 21 21 20 18 17 16 15 15 15 15 13 11 10 9 8 7 7 6 6 5 5 3 4 5 7 8 11 10 8 11 13 15 14 9 13 16 13 12 15 13 12 12 10 11 12 12 13 11 7 8 11 14 16 16 15 13 12 13 15 17 17 15 12 11 11
27 28 30 30 31 31 31 31 31 31 31 31 31 29 29 28 28 27 26 25 23 21 21 22 21 20 19 17 15 14 14 15 14 13 12 10 9 8 7 7 7 6 6 6 6 5 5 5 7 7 6 8 12 13 13 13 11 13 14 12 12 12 11 11 10 10 11 10 8 11 10 6 6 8 10 13 12 12 13 11 11 13 15 18 18 16 14 12
24 25 26 27 28 28 28 28 28 29 29 29 30 29 28 28 27 27 26 25 23 22 22 22 21 20 18 17 15 14 14 14 14 13 12 10 9 8 8 8 7 6 6 6 6 6 6 5 5 6 7 9 11 11 12 13 13 13 12 11 11 10 10 10 9 10 10 8 7 10 11 7 6 8 8 10 10 9 10 9 9 10 12 15 17 18 16 15
25 25 25 26 27 26 26 26 25 27 27 27 28 28 27 27 27 27 25 24 23 23 22 21 20 18 18 17 15 15 14 14 14 12 11 9 9 9 9 8 6 6 5 4 5 6 6 6 6 6 8 9 9 10 13 14 14 13 12 11 9 9 10 8 8 9 7 6 8 10 12 9 7 8 8 9 9 8 8 7 7 8 9 12 14 16 17 16
27 27 26 27 28 27 27 26 25 26 26 26 26 26 26 27 27 26 24 24 24 23 22 20 19 18 18 17 16 16 14 14 13 12 10 9 9 10 10 9 7 4 3 4 6 6 6 8 8 8 9 9 9 10 12 14 14 13 11 10 7 7 10 7 6 7 5 7 11 11 11 9 8 8 9 9 8 7 7 6 6 6 7 10 11 13 14 15
26 26 27 27 28 29 29 27 27 27 27 27 26 26 26 27 26 23 23 25 26 24 22 20 20 19 18 17 17 16 15 13 12 11 10 9 10 11 10 10 8 6 6 8 8 5 7 9 7 8 9 8 6 5 6 10 11 9 9 9 7 7 9 7 6 7 7 10 11 9 8 7 7 7 8 8 7 6 6 6 6 6 7 8 10 11 12 13
22 24 25 26 27 28 29 28 28 28 28 28 27 28 27 26 24 22 24 27 26 25 23 21 21 20 19 19 18 17 15 13 12 10 9 8 9 11 11 10 8 8 9 8 7 9 9 8 7 7 8 6 5 6 6 7 7 6 7 7 6 8 9 8 8 7 8 9 7 6 5 5 6 7 7 7 6 5 6 6 7 7 7 8 9 11 11 12
19 20 22 24 25 27 27 28 29 28 29 29 29 29 27 25 24 24 26 28 26 25 23 21 21 21 20 20 19 17 15 14 11 10 9 8 8 10 11 11 9 9 8 6 7 9 10 8 8 6 5 5 5 6 5 4 6 7 8 6 6 7 9 11 10 9 8 6 5 5 5 6 6 7 8 7 6 6 6 7 7 7 7 8 9 11 12 12
17 18 19 21 23 24 25 27 28 28 29 29 30 30 26 25 26 26 28 28 26 25 22 21 22 21 21 21 20 18 16 14 12 10 9 8 8 9 10 11 9 8 7 8 10 8 6 8 10 6 5 6 6 5 3 3 6 6 6 6 6 7 8 9 8 7 5 2 3 5 5 6 6 6 8 8 7 7 7 7 8 8 9 9 9 10 12 13
17 16 17 18 20 22 23 24 26 27 29 29 30 28 25 25 27 27 28 28 27 25 22 22 23 22 22 21 21 19 17 15 13 11 10 8 8 7 7 9 8 8 8 9 11 10 7 9 11 8 8 8 6 5 5 6 6 4 4 7 7 5 6 7 5 4 3 2 5 7 6 6 6 7 9 10 10 8 7 7 8 8 8 9 10 10 12 13
20 18 17 17 19 20 21 22 24 26 28 29 29 28 26 27 27 27 28 28 27 26 24 24 25 24 22 20 21 21 19 16 14 12 11 9 8 6 5 8 8 8 9 9 11 12 10 8 10 10 9 9 9 8 8 8 6 6 7 7 6 4 5 6 4 4 3 3 5 7 7 6 6 8 9 10 10 9 9 8 8 9 9 9 9 10 11 13
23 23 21 20 20 21 20 21 22 24 26 27 28 28 27 27 27 27 27 27 27 27 26 26 25 24 23 22 23 23 20 17 16 13 11 10 9 6 6 8 9 10 11 11 12 12 12 9 9 11 10 10 11 9 10 11 8 8 9 8 7 6 5 5 6 6 4 3 3 5 8 8 8 9 10 10 10 11 11 10 9 10 10 10 10 10 12 13
25 26 24 23 23 22 22 22 22 23 24 25 27 28 27 28 28 28 27 27 28 28 28 27 25 24 25 25 24 24 22 19 17 15 13 12 9 8 9 10 11 12 13 13 12 12 13 10 8 11 10 10 12 10 11 14 11 9 10 9 8 7 6 6 6 5 4 4 3 2 6 9 10 11 11 10 11 11 11 11 10 10 11 11 11 11 12 14
26 26 25 24 24 24 23 23 22 22 23 24 26 27 27 28 28 27 26 26 28 29 29 26 25 26 26 25 26 26 24 21 18 17 15 13 11 11 12 13 13 14 15 14 13 12 13 11 9 10 10 11 14 13 12 15 14 10 11 11 9 8 8 6 5 6 6 5 5 4 6 10 11 12 12 11 11 11 11 11 10 10 10 11 12 12 13 14
27 27 25 25 25 25 24 24 23 23 23 23 24 26 27 26 27 27 26 25 27 29 29 27 27 26 26 27 28 27 26 23 21 20 18 15 14 14 14 14 14 16 16 16 14 13 13 12 11 11 12 13 15 13 13 15 15 14 13 13 11 10 8 6 6 8 8 7 8 7 7 10 12 13 13 12 12 12 12 11 11 10 10 11 12 13 13 14
27 27 28 28 27 26 25 24 23 23 23 23 24 25 26 26 27 27 26 25 26 29 30 30 28 27 27 29 29 28 27 25 23 22 20 18 17 16 16 16 16 16 17 17 17 15 14 13 14 15 15 16 16 14 14 14 13 14 15 15 14 13 11 10 10 10 8 9 9 7 7 9 11 14 14 13 13 13 12 12 12 11 11 11 12 12 13 15
28 29 30 30 29 28 26 25 24 24 24 23 25 25 25 26 26 26 26 25 27 29 31 31 29 29 30 30 30 30 29 27 26 25 23 20 19 18 18 19 18 18 18 18 18 17 16 16 16 15 13 13 14 14 13 13 12 12 14 15 16 16 15 13 13 12 10 11 10 6 7 9 11 14 16 15 14 14 13 13 13 13 12 12 13 13 13 15
31 31 30 30 30 29 28 26 25 25 24 24 25 26 25 25 26 26 26 26 27 28 31 33 32 31 31 31 31 31 30 29 28 27 25 22 20 20 20 20 20 20 19 18 18 18 19 18 15 13 11 10 11 11 11 13 13 12 12 13 14 15 15 14 14 12 11 12 12 9 9 11 13 14 16 16 15 14 14 14 15 14 14 13 13 13 14 15
33 32 31 30 31 30 28 27 26 26 25 25 26 26 25 26 26 26 27 28 28 28 29 33 34 33 32 32 33 32 31 31 30 29 27 24 22 21 21 21 21 21 20 19 18 18 18 17 15 14 14 14 14 13 13 15 16 16 15 13 13 14 14 14 14 13 13 13 13 13 13 14 15 14 15 16 16 15 15 15 16 15 15 14 13 13 14 14
33 32 31 30 30 30 29 28 27 27 26 26 27 26 26 27 27 27 28 28 29 28 28 32 34 34 35 35 34 33 33 33 32 30 29 27 25 22 21 22 22 22 21 20 19 18 18 18 18 17 17 17 16 15 15 16 17 19 19 17 15 15 15 15 14 14 14 13 12 14 15 14 15 15 14 15 16 16 16 16 16 16 16 15 14 13 13 13
32 32 31 31 31 31 30 28 27 27 26 27 27 27 27 28 28 29 29 29 29 28 28 30 33 36 37 37 36 35 34 34 34 32 30 29 26 24 24 24 23 23 23 22 21 19 19 21 21 19 18 18 18 17 17 17 18 18 19 19 18 17 16 16 16 16 16 14 14 14 14 13 14 14 15 16 16 17 17 16 17 17 17 16 15 15 14 13
32 32 32 32 32 31 31 29 28 27 27 27 27 27 28 29 29 30 30 30 30 29 28 30 33 36 37 37 36 36 35 35 35 33 31 30 28 26 25 25 24 24 24 23 22 20 21 23 22 19 18 18 17 18 18 19 19 19 19 19 19 18 17 17 18 18 17 16 16 15 14 14 14 14 15 16 16 16 17 17 17 17 17 17 17 16 15 14
32 32 32 33 33 32 31 30 28 27 27 27 27 27 27 28 30 30 31 31 31 29 28 30 32 35 36 36 37 37 37 37 36 35 33 31 29 27 26 25 25 24 24 23 22 21 22 24 21 18 20 20 17 17 18 19 20 21 20 19 19 18 18 19 19 18 16 16 16 15 15 15 15 15 16 16 15 16 17 18 18 18 18 18 18 17 16 16
32 32 32 34 34 33 32 31 29 28 27 27 27 27 26 27 28 29 31 32 32 32 29 29 31 34 35 35 37 39 38 37 37 36 34 32 31 29 28 27 25 24 25 24 23 22 24 24 22 20 22 22 18 16 17 18 19 21 21 20 19 18 18 19 19 18 18 17 16 16 16 16 15 15 16 16 16 16 17 18 19 19 19 19 18 18 17 17
33 33 33 34 34 33 33 32 30 29 28 26 26 27 26 26 26 28 31 32 33 33 31 29 30 33 35 36 37 38 38 38 38 38 36 34 32 30 30 28 26 25 26 24 23 24 25 24 24 22 22 23 19 16 16 16 17 19 20 19 19 18 17 18 19 18 19 18 16 16 16 15 15 16 16 17 17 17 18 19 20 20 20 20 20 19 18 18
Wind_Direction
66 61 55 50 45 40 35 29 25 19 14 10 4 359 352 347 343 341 342 345 350 352 352 351 350 350 352 353 354 355 355 355 355 354 352 350 347 343 336 317 293 274 269 267 268 268 270 289 307 320 337 357 4 196 239 270 331 335 178 172 175 179 180 173 167 172 171 170 176 175 170 163 157 161 153 144 137 122 103 97 101 103 106 100 117 159 126 106
66 60 53 46 40 35 30 24 20 14 9 5 0 356 349 345 340 337 337 340 344 347 347 347 346 346 347 349 350 351 352 352 352 351 350 347 344 341 336 319 293 272 266 265 266 265 265 279 293 311 329 355 21 83 335 347 13 84 139 141 158 164 164 167 167 167 167 168 175 175 169 160 158 160 152 148 143 124 105 100 99 103 106 100 105 133 111 104
66 59 51 42 35 29 24 19 13 8 4 359 355 351 346 342 338 334 333 335 339 343 344 343 342 342 344 345 346 348 349 350 350 348 347 343 339 338 335 322 296 271 262 261 264 262 262 270 280 300 317 357 35 71 45 53 48 108 144 143 149 155 160 166 166 165 167 169 172 174 169 159 155 157 156 154 136 126 122 115 105 106 106 100 106 109 107 105
62 54 45 35 27 20 15 9 4 359 355 352 348 345 342 338 334 331 330 331 335 338 340 339 339 339 341 342 343 344 345 347 347 346 344 340 337 337 335 325 300 272 259 256 261 259 256 261 270 288 295 355 50 83 74 77 61 85 154 161 153 154 161 163 164 166 168 168 170 173 169 157 153 157 161 157 145 147 143 133 126 124 112 104 110 106 114 116
51 42 31 22 14 8 3 357 353 349 346 343 340 339 337 334 331 328 326 328 331 335 337 337 338 337 338 339 340 341 343 345 345 344 342 338 336 336 335 327 307 275 259 253 257 256 252 254 261 272 275 358 77 113 99 87 68 64 154 167 154 153 159 161 163 165 166 167 170 172 168 156 153 159 163 164 161 156 155 157 142 139 132 121 123 127 141 142
36 25 15 7 0 355 351 346 342 340 337 335 334 333 332 330 327 325 324 325 329 334 336 336 336 336 336 337 338 339 341 342 342 342 342 338 335 333 332 327 312 280 260 252 254 255 248 249 253 256 241 165 116 124 112 97 80 78 145 158 152 151 156 161 163 164 167 172 177 175 169 160 154 156 165 172 162 159 175 187 161 148 153 147 140 137 147 166
13 4 357 352 347 345 341 338 335 334 332 331 330 329 328 326 324 322 321 323 328 332 334 334 334 334 335 336 337 338 338 340 341 342 341 337 331 325 325 323 313 286 264 252 250 252 247 244 246 243 204 176 147 131 124 110 94 86 129 164 161 155 156 160 161 164 168 175 184 182 177 171 161 157 165 176 171 175 181 179 170 162 172 171 158 139 147 174
348 343 341 339 337 336 334 332 331 330 329 328 327 325 324 323 322 320 319 322 326 330 332 333 333 333 335 335 336 336 336 338 340 340 338 333 325 317 312 313 310 289 267 254 248 248 246 241 241 226 187 184 165 144 137 126 115 99 82 159 168 162 162 163 161 164 170 176 186 190 188 182 174 164 162 177 189 192 185 182 194 185 197 198 178 155 156 178
326 328 329 329 329 330 328 327 327 326 326 325 324 323 322 321 320 319 319 322 326 330 332 333 333 334 335 335 334 334 334 337 338 338 335 329 321 313 301 296 299 286 269 257 248 246 243 239 237 213 189 193 172 156 152 137 136 131 85 31 147 162 166 170 171 174 176 179 187 192 192 188 181 167 167 192 205 212 201 203 214 193 191 216 207 185 179 195
316 321 324 324 324 324 323 323 323 323 323 322 322 322 321 321 320 319 319 322 326 330 331 332 332 333 334 334 333 333 334 336 337 337 335 327 318 311 297 282 280 278 267 257 250 247 242 237 233 213 198 197 177 167 163 151 160 160 129 32 27 164 171 179 181 182 182 183 189 193 194 192 183 175 189 210 209 207 193 198 222 205 176 208 225 215 200 212
315 319 321 321 321 321 321 321 321 321 321 322 323 323 322 322 320 318 319 322 326 328 329 330 331 332 334 333 331 332 333 334 337 336 332 324 315 311 297 274 264 268 267 257 248 245 240 236 234 220 206 197 181 177 173 168 185 185 173 160 157 193 195 199 189 178 175 178 184 186 191 194 190 198 209 220 218 215 208 183 212 214 204 214 224 232 226 219
316 319 320 320 320 320 320 319 320 320 321 324 324 323 322 321 319 318 318 321 324 325 327 328 330 333 332 331 331 332 333 334 336 334 329 320 313 311 303 278 257 256 261 253 244 244 240 234 233 223 212 199 188 188 187 188 197 198 192 177 178 196 208 217 206 184 173 176 180 181 194 204 205 214 221 230 232 238 250 266 273 234 230 231 219 230 241 233
317 319 320 320 319 320 320 319 319 320 323 325 323 323 322 319 317 316 317 319 321 323 326 328 331 332 331 331 332 331 332 334 335 334 328 316 311 311 307 288 257 246 246 242 237 240 240 236 232 224 215 204 194 195 196 198 203 205 203 194 187 193 211 216 209 200 192 193 191 190 201 210 217 225 232 241 246 258 263 265 288 261 240 233 226 241 248 245
316 318 318 319 319 319 320 319 320 322 325 324 322 321 320 317 315 314 315 316 319 322 324 328 331 331 331 332 332 332 333 334 336 334 326 313 311 311 309 298 262 242 236 237 234 234 237 236 230 222 215 205 197 198 200 201 206 208 211 216 205 194 207 217 216 209 204 208 206 204 204 202 218 227 237 252 257 270 273 258 258 276 271 252 233 240 248 249
313 314 315 316 317 318 319 320 321 324 324 323 322 320 318 316 314 313 313 315 318 320 323 327 330 330 331 332 332 333 333 335 336 333 324 314 314 316 315 305 269 242 232 233 233 229 231 232 229 222 212 204 199 199 202 204 208 205 198 221 216 205 200 208 223 225 214 219 216 217 215 187 202 215 227 245 252 260 263 260 267 296 288 271 235 225 240 254
308 310 311 313 315 316 318 318 320 322 323 322 321 320 317 315 313 312 312 314 316 318 322 326 327 329 330 332 332 333 333 334 335 332 324 316 318 323 322 311 278 245 230 229 230 227 225 226 225 220 212 204 199 200 204 208 213 209 200 216 222 217 211 205 220 229 221 223 223 226 227 193 192 208 217 231 247 257 262 267 287 300 276 279 254 233 245 270
302 305 308 311 312 314 315 315 316 318 319 319 318 318 316 315 313 312 311 312 314 316 320 322 325 327 329 331 331 331 332 332 333 332 325 318 319 325 328 320 288 250 232 227 226 224 222 221 221 219 213 205 199 201 205 207 215 217 212 221 230 229 228 218 219 226 223 225 228 231 232 219 212 212 215 225 245 263 274 275 289 296 272 283 276 244 243 263
299 301 304 308 309 310 312 311 311 312 313 313 313 313 313 313 311 310 310 310 311 313 317 319 323 325 327 330 329 329 330 331 332 331 325 319 320 325 330 323 294 257 235 227 224 221 220 219 218 218 213 205 200 199 200 203 212 211 208 215 225 230 234 231 228 232 230 229 230 228 226 228 230 225 222 224 235 250 270 275 279 286 277 277 273 250 242 253
298 299 300 302 304 306 306 306 306 306 308 307 307 307 308 309 308 308 308 308 310 311 314 317 319 323 325 327 327 327 329 331 333 333 328 324 325 328 328 320 297 265 239 230 223 221 220 218 218 217 209 203 200 200 203 213 219 215 212 216 219 225 236 237 235 238 240 237 234 232 227 228 234 236 235 231 235 246 257 271 277 276 275 275 267 256 258 265
295 296 297 298 299 300 301 302 302 302 303 303 303 303 305 306 306 307 307 307 308 309 311 313 316 319 322 323 324 326 329 333 335 334 330 326 327 328 324 318 299 270 241 230 224 222 221 219 217 209 199 203 205 208 214 224 227 221 218 220 220 222 230 237 237 240 244 242 239 241 240 240 242 242 245 246 246 251 253 266 281 281 270 270 270 264 273 281
293 294 295 295 295 296 297 297 298 298 299 299 299 301 302 304 304 305 305 305 306 307 308 310 313 314 317 320 322 325 331 335 337 334 329 326 327 327 322 316 303 279 247 227 222 223 222 221 217 204 199 207 210 213 218 224 227 224 220 219 220 224 227 232 236 239 244 244 244 251 252 252 255 256 257 258 253 253 254 259 280 287 280 278 279 271 276 278
292 292 291 292 292 292 292 293 294 294 295 295 296 298 299 300 300 302 303 304 305 305 307 308 309 310 313 316 319 326 333 336 335 331 328 326 325 326 321 316 304 283 257 232 219 220 222 220 217 209 204 206 210 214 217 222 226 225 224 220 222 230 229 235 244 246 251 252 254 262 265 263 264 267 270 264 253 251 253 256 268 282 284 283 281 277 279 277
290 290 289 289 289 289 289 289 290 291 291 292 294 295 296 296 297 299 301 303 304 304 305 306 307 309 310 313 319 326 333 336 335 331 330 326 323 322 315 306 295 282 264 241 221 215 218 219 221 217 205 201 206 212 216 222 225 226 224 217 224 238 225 230 245 248 254 258 261 269 276 279 273 270 271 263 251 249 251 255 260 267 273 276 276 277 279 278
287 288 287 287 287 288 288 288 288 288 289 290 291 292 293 293 294 296 299 300 300 301 302 304 305 306 307 312 318 326 333 336 336 335 332 324 320 313 302 291 282 275 262 244 225 214 215 219 223 220 207 202 208 215 220 224 224 229 230 218 220 241 226 227 242 248 261 271 276 281 285 285 280 278 275 266 253 249 248 249 255 261 264 265 268 271 275 278
286 286 286 286 286 286 287 287 287 287 287 288 288 289 289 290 291 293 295 296 296 298 300 302 303 303 306 312 317 324 330 333 334 334 329 324 317 305 295 284 274 266 257 244 226 217 218 218 219 218 211 207 212 218 226 228 223 233 245 233 233 249 244 241 250 256 270 276 278 282 281 275 279 285 285 278 266 254 249 246 248 255 261 264 267 270 273 278
285 284 284 284 284 284 284 285 285 285 285 285 285 286 286 287 288 289 291 292 293 296 298 299 299 301 306 310 315 321 325 328 329 329 327 324 313 302 294 278 266 255 244 232 222 219 218 218 218 215 213 213 219 224 232 236 227 233 250 243 240 250 250 248 256 262 264 264 270 276 273 266 272 283 289 287 281 273 262 253 248 249 257 265 270 272 274 278
284 284 283 283 283 282 281 282 282 282 282 283 283 283 283 284 285 286 288 289 290 294 296 296 297 299 303 307 312 316 321 325 326 325 325 322 309 299 287 265 251 234 221 203 226 232 216 215 216 214 217 224 231 236 245 249 227 225 247 251 246 249 251 249 257 261 253 253 264 272 274 269 263 273 284 285 286 286 279 264 253 249 251 256 262 268 272 275
285 284 283 282 282 281 281 280 280 280 280 280 280 280 280 281 281 282 284 285 286 290 290 291 293 296 300 303 305 309 315 320 323 323 321 317 304 290 275 259 245 227 205 173 188 229 217 206 206 213 216 223 231 237 253 264 246 240 256 264 257 258 261 256 257 257 248 250 256 262 271 275 262 269 283 285 286 289 285 272 258 250 247 248 249 255 262 266
288 286 285 284 283 282 281 281 280 279 278 278 278 278 278 278 278 278 279 279 281 283 284 286 289 293 297 298 299 303 309 315 320 321 316 310 297 280 267 258 249 232 212 197 201 212 218 215 206 208 195 203 231 244 261 270 262 262 272 273 267 272 272 266 265 255 245 249 251 249 253 256 253 259 278 287 288 288 287 278 263 253 247 245 246 248 252 257
291 290 288 287 285 284 283 282 280 279 277 277 276 276 276 276 276 276 276 276 278 279 279 280 284 289 292 292 293 297 303 310 316 317 312 303 288 274 263 257 254 243 224 216 223 217 215 221 214 214 210 219 242 258 265 266 263 267 275 276 279 281 274 269 262 244 239 254 257 250 252 249 247 248 257 276 282 284 287 282 266 256 249 246 246 246 246 249
290 289 289 287 286 285 284 283 281 279 278 277 275 275 274 274 273 273 274 275 274 273 273 275 279 283 284 286 287 291 298 304 310 314 310 297 280 266 257 251 248 250 251 247 251 245 232 228 230 232 233 241 254 254 254 259 262 265 268 272 278 279 276 272 259 249 246 255 247 243 251 249 241 243 248 263 272 275 282 282 273 263 255 250 248 245 243 244
287 286 286 285 285 285 284 283 281 279 278 277 275 274 273 272 271 271 273 271 268 267 270 272 275 276 278 279 281 286 291 296 304 310 306 295 278 264 254 249 237 227 285 276 252 255 250 234 231 240 246 251 256 259 265 265 262 264 266 266 261 261 275 277 260 264 264 246 240 240 250 248 238 244 249 256 261 261 267 276 278 274 266 259 254 250 246 244
285 284 283 282 282 282 282 282 281 279 278 277 276 274 272 271 272 273 271 266 264 266 267 268 271 272 273 273 275 281 284 289 298 303 301 293 279 268 259 257 242 196 206 228 221 219 254 263 255 244 253 259 246 245 274 272 265 260 254 252 238 236 261 269 261 271 271 256 253 253 254 242 234 247 253 251 248 248 256 267 275 276 273 267 262 257 252 249
287 284 283 281 279 279 280 280 280 279 278 277 276 274 273 274 276 272 265 263 264 264 264 265 268 268 268 267 270 275 278 283 290 295 295 291 281 273 263 259 250 226 219 222 216 199 214 260 271 242 247 261 236 209 214 245 264 261 242 237 233 233 240 240 240 246 247 251 256 256 249 229 228 249 258 255 248 243 252 261 267 272 274 272 267 262 257 254
291 287 285 283 281 278 278 278 278 278 277 277 275 274 275 277 274 267 262 262 263 262 263 264 264 264 264 265 267 270 272 277 283 287 289 288 283 273 262 255 247 242 231 214 227 212 194 228 251 237 234 237 233 231 224 243 264 263 256 242 234 238 231 223 227 230 230 243 248 238 240 236 240 258 259 256 256 254 259 263 263 266 269 272 271 264 259 256
297 293 290 288 285 281 279 277 276 275 275 275 274 275 277 275 270 266 264 263 262 261 261 259 258 257 257 260 263 266 268 272 274 278 282 283 277 269 262 256 243 238 224 201 217 217 196 238 249 236 232 230 225 240 255 253 249 259 272 256 243 251 240 224 228 235 230 235 240 241 255 253 259 276 270 265 269 267 267 266 263 263 263 266 269 266 259 255
309 304 299 296 292 288 284 280 276 274 273 272 273 276 276 271 268 266 265 263 261 260 255 251 251 250 250 255 259 260 262 265 265 267 272 275 272 267 262 251 235 228 223 208 215 216 207 241 251 234 235 246 240 242 253 242 231 245 263 254 255 258 229 212 217 231 229 239 246 257 273 265 266 282 282 284 289 285 280 272 265 262 261 262 264 264 259 253
318 316 312 307 302 297 291 284 278 275 272 272 273 274 271 268 267 266 264 262 260 258 252 247 248 248 248 248 251 255 257 257 256 257 262 267 266 259 250 241 227 221 223 217 223 229 221 233 254 247 241 254 257 258 259 241 214 219 239 246 251 238 203 197 202 210 226 250 254 270 284 275 272 280 284 292 295 291 287 280 268 261 257 257 258 259 259 254
319 318 316 313 308 304 299 291 284 278 274 272 271 270 267 266 265 263 262 260 257 254 249 246 245 245 243 240 245 252 252 247 247 248 251 256 256 244 233 236 230 224 229 229 229 235 228 222 247 254 243 251 262 255 247 244 227 218 233 239 230 220 204 198 199 196 208 238 253 292 297 277 273 282 285 289 290 289 291 287 275 263 255 252 251 253 255 254
316 315 314 313 309 306 302 297 291 284 278 273 270 268 266 265 264 263 262 258 255 251 248 246 244 240 239 239 243 248 247 243 243 242 243 247 249 242 232 235 236 229 232 237 233 235 231 219 236 256 251 251 255 238 228 245 246 226 230 236 224 216 211 203 204 199 196 221 235 283 291 275 277 285 286 290 292 292 293 291 283 269 257 252 249 248 250 250
313 312 312 311 308 305 302 298 294 288 281 273 270 268 267 265 265 264 262 258 254 251 248 244 241 239 239 239 239 241 242 240 238 238 242 245 244 242 237 234 235 230 231 239 239 233 229 218 220 246 251 246 250 247 238 249 255 244 241 243 232 224 219 212 231 229 213 226 242 244 273 280 287 290 290 298 302 300 297 292 288 279 267 259 254 250 249 249
309 309 310 310 309 306 302 298 294 289 282 275 270 268 266 265 264 262 260 256 252 250 247 241 238 238 237 237 238 239 237 235 233 234 239 242 239 239 238 233 227 223 225 233 239 237 235 230 225 234 243 247 255 260 254 252 253 247 244 241 235 235 232 229 245 237 227 241 249 249 265 278 286 291 295 305 308 307 303 296 292 286 275 268 262 257 253 252
307 307 307 308 308 306 302 297 293 287 282 276 271 268 266 264 263 262 260 255 249 246 244 239 235 234 233 235 238 238 236 233 232 232 234 238 238 235 233 227 221 220 222 228 236 240 244 242 236 237 245 254 260 261 258 257 252 247 242 233 231 236 232 231 239 237 239 248 247 257 273 271 278 288 296 305 310 310 306 300 296 287 277 272 269 265 261 257
308 306 305 305 305 303 300 296 290 284 280 276 272 269 267 265 264 263 261 255 249 244 241 237 233 231 231 233 235 236 236 233 230 230 231 235 236 232 227 224 222 221 223 229 235 239 242 241 241 247 256 264 269 267 266 264 255 249 244 231 230 234 231 235 241 237 242 247 241 252 271 264 272 286 294 302 309 311 308 302 297 290 283 278 275 273 270 265
308 305 304 302 301 300 297 293 288 282 277 273 270 269 268 266 265 263 261 258 252 245 240 237 233 230 230 231 232 234 235 233 232 231 230 233 235 231 225 225 226 226 228 233 236 238 241 241 242 248 249 252 260 262 266 270 265 259 251 241 237 237 235 240 244 241 245 246 235 233 251 262 269 280 290 297 305 310 309 303 297 292 289 284 279 277 274 271
306 305 303 301 299 297 295 291 286 280 275 271 268 268 267 266 264 262 260 258 255 248 241 236 234 231 228 229 230 231 233 233 233 232 231 233 235 233 228 226 228 230 232 237 238 239 242 245 245 247 246 244 248 252 260 270 274 271 266 259 252 245 240 241 244 247 248 246 242 237 242 258 267 272 282 292 300 308 309 304 297 291 289 287 283 279 276 274
304 303 303 301 299 296 293 290 285 279 274 270 267 267 265 264 263 261 258 257 256 251 242 237 235 232 229 228 228 228 229 232 233 231 230 231 234 234 233 231 230 232 234 237 240 240 244 248 248 248 251 254 257 261 264 265 269 273 274 271 265 258 250 244 244 244 238 240 251 247 241 255 268 271 277 285 296 305 307 304 298 291 287 286 283 280 277 276
300 300 300 299 297 295 293 289 284 278 273 269 268 266 264 263 261 260 258 256 255 252 245 239 236 233 231 229 228 227 227 230 232 231 229 230 233 234 235 233 232 234 236 238 241 242 244 249 250 249 252 256 258 262 265 265 265 267 270 271 269 263 256 248 243 238 232 236 248 248 247 259 268 271 275 282 292 300 302 303 301 293 286 282 280 279 277 275
297 297 297 297 296 294 292 289 283 277 272 269 267 265 263 262 260 259 258 256 254 251 246 240 237 235 234 232 229 228 227 228 230 231 228 228 231 233 235 236 236 236 238 240 243 245 246 249 251 253 257 259 259 262 265 268 267 265 265 267 267 263 257 250 244 240 237 240 244 245 253 263 266 268 275 282 289 294 299 303 302 295 288 281 278 277 275 275
294 295 295 295 294 293 291 287 281 275 270 267 266 265 263 261 258 257 256 255 253 250 245 241 239 238 236 233 230 228 227 227 228 230 228 227 228 230 233 235 236 239 242 245 247 248 250 251 252 255 259 258 258 263 267 267 267 267 267 266 264 261 256 252 249 246 243 245 245 246 254 261 262 267 275 281 286 290 295 300 301 297 289 282 278 276 275 275
291 292 293 293 293 292 289 286 281 274 269 266 265 264 262 260 258 255 254 253 253 251 246 242 241 240 237 234 231 229 227 226 227 229 229 228 227 227 229 232 235 239 242 246 248 249 251 254 254 255 260 260 258 264 269 266 264 266 267 267 266 262 255 251 250 247 245 248 248 249 255 261 263 267 275 281 285 288 292 296 299 297 290 283 279 277 276 276
289 290 292 292 292 290 288 286 281 274 269 265 264 263 262 260 257 254 252 252 252 252 248 243 240 239 238 235 232 230 227 225 226 228 229 229 228 228 230 234 236 239 241 242 244 246 248 251 251 252 258 262 261 265 270 268 264 262 261 262 263 262 257 252 248 245 246 247 248 251 257 260 263 270 277 283 285 286 289 294 297 297 291 284 279 276 275 275
Height
5914 5914 5914 5914 5914 5913 5913 5913 5913 5913 5912 5912 5912 5911 5911 5910 5910 5910 5909 5909 5908 5908 5907 5906 5905 5905 5904 5903 5901 5900 5899 5898 5897 5896 5895 5894 5893 5892 5891 5890 5890 5889 5889 5889 5889 5890 5890 5891 5890 5890 5890 5890 5890 5890 5889 5889 5887 5885 5883 5885 5886 5886 5887 5890 5892 5893 5895 5896 5897 5898 5898 5898 5898 5898 5898 5899 5899 5899 5899 5899 5899 5899 5899 5899 5899 5898 5898 5897
5914 5914 5914 5914 5914 5913 5913 5913 5913 5912 5912 5912 5911 5911 5910 5910 5909 5909 5909 5908 5908 5907 5906 5906 5905 5904 5903 5902 5901 5900 5899 5897 5896 5895 5894 5893 5892 5891 5890 5890 5889 5889 5888 5888 5888 5889 5890 5890 5890 5890 5890 5890 5890 5889 5889 5889 5887 5885 5884 5885 5885 5886 5888 5890 5891 5893 5895 5896 5897 5897 5898 5898 5898 5898 5898 5898 5899 5899 5899 5899 5899 5899 5899 5899 5899 5899 5898 5898
5914 5914 5914 5914 5913 5913 5913 5913 5912 5912 5912 5911 5911 5910 5910 5909 5909 5908 5908 5907 5907 5906 5906 5905 5904 5903 5902 5901 5900 5899 5898 5897 5896 5894 5893 5892 5891 5891 5890 5889 5888 5888 5888 5888 5888 5888 5889 5890 5890 5890 5890 5890 5890 5889 5889 5889 5888 5887 5886 5886 5886 5887 5889 5890 5892 5893 5895 5895 5896 5897 5897 5898 5898 5898 5898 5898 5898 5899 5899 5899 5899 5899 5899 5899 5899 5899 5899 5898
5914 5914 5914 5913 5913 5913 5913 5912 5912 5912 5911 5911 5910 5910 5909 5909 5908 5908 5907 5907 5906 5906 5905 5904 5903 5903 5902 5901 5900 5899 5898 5896 5895 5894 5892 5891 5890 5890 5889 5888 5887 5887 5887 5887 5887 5887 5888 5889 5889 5889 5889 5890 5890 5890 5889 5889 5889 5889 5888 5888 5887 5888 5889 5891 5892 5894 5895 5896 5896 5897 5897 5898 5898 5898 5898 5898 5899 5899 5899 5899 5899 5899 5899 5899 5899 5899 5899 5898
5914 5914 5913 5913 5913 5913 5912 5912 5911 5911 5911 5910 5910 5909 5909 5908 5907 5907 5906 5906 5906 5905 5904 5903 5903 5902 5901 5900 5899 5898 5897 5895 5894 5893 5892 5890 5890 5889 5888 5887 5887 5886 5886 5886 5886 5886 5888 5888 5889 5889 5889 5890 5890 5890 5890 5890 5890 5889 5889 5889 5888 5889 5890 5892 5893 5894 5895 5896 5896 5897 5897 5897 5898 5898 5898 5898 5898 5898 5898 5899 5899 5899 5899 5899 5899 5899 5899 5899
5913 5913 5913 5913 5912 5912 5912 5911 5911 5910 5910 5909 5909 5908 5908 5907 5907 5906 5906 5905 5905 5904 5904 5903 5902 5901 5900 5899 5898 5897 5896 5894 5893 5892 5891 5890 5889 5888 5888 5887 5886 5885 5885 5885 5885 5886 5887 5888 5888 5888 5889 5890 5890 5891 5890 5890 5890 5890 5890 5890 5889 5889 5891 5892 5893 5894 5895 5896 5896 5896 5897 5897 5898 5898 5898 5898 5898 5898 5898 5898 5898 5899 5898 5898 5899 5899 5899 5899
5913 5913 5913 5912 5912 5912 5911 5911 5910 5910 5909 5909 5908 5907 5907 5906 5906 5905 5905 5905 5904 5903 5903 5902 5901 5900 5899 5898 5897 5896 5895 5894 5892 5891 5890 5889 5888 5887 5887 5886 5885 5884 5884 5884 5885 5885 5886 5887 5887 5888 5889 5890 5890 5891 5891 5890 5890 5891 5891 5890 5890 5890 5891 5892 5893 5893 5894 5895 5896 5896 5896 5897 5897 5898 5898 5898 5898 5898 5898 5898 5898 5899 5898 5898 5898 5898 5898 5898
5913 5912 5912 5912 5911 5911 5911 5910 5910 5909 5909 5908 5907 5907 5906 5906 5905 5905 5904 5904 5903 5903 5902 5901 5900 5899 5898 5897 5896 5895 5894 5893 5891 5890 5888 5888 5887 5886 5886 5885 5885 5884 5883 5883 5884 5884 5886 5886 5887 5888 5889 5890 5890 5891 5891 5891 5891 5891 5891 5891 5891 5891 5892 5892 5893 5893 5894 5895 5895 5896 5896 5897 5897 5898 5898 5898 5898 5898 5898 5898 5898 5898 5898 5898 5898 5898 5898 5898
5912 5912 5911 5911 5911 5910 5910 5909 5909 5908 5908 5907 5906 5906 5905 5905 5904 5904 5903 5903 5902 5902 5901 5900 5899 5898 5897 5896 5895 5894 5893 5891 5890 5889 5887 5886 5886 5885 5885 5885 5884 5883 5883 5883 5883 5884 5885 5886 5886 5887 5888 5890 5890 5891 5891 5891 5892 5892 5891 5891 5892 5892 5892 5893 5893 5893 5894 5894 5895 5895 5896 5896 5897 5897 5898 5898 5898 5898 5898 5898 5898 5898 5898 5898 5897 5897 5898 5898
5912 5911 5911 5910 5910 5910 5909 5909 5908 5907 5907 5906 5906 5905 5904 5904 5903 5903 5903 5902 5902 5901 5900 5899 5898 5897 5896 5895 5894 5893 5892 5890 5889 5887 5886 5885 5884 5884 5884 5883 5883 5883 5882 5882 5883 5883 5884 5885 5886 5887 5888 5889 5890 5891 5891 5891 5892 5892 5892 5891 5892 5892 5893 5893 5893 5894 5894 5894 5894 5895 5895 5896 5897 5897 5898 5898 5898 5898 5898 5898 5898 5898 5898 5898 5898 5897 5897 5898
5911 5911 5910 5910 5909 5909 5908 5908 5907 5906 5906 5905 5905 5904 5904 5903 5903 5902 5902 5901 5901 5900 5899 5898 5897 5896 5895 5894 5893 5892 5890 5889 5888 5886 5885 5884 5883 5882 5882 5882 5882 5882 5881 5881 5882 5882 5883 5884 5885 5886 5887 5889 5890 5890 5891 5891 5892 5892 5892 5892 5892 5892 5893 5893 5893 5894 5894 5895 5894 5895 5896 5896 5897 5897 5897 5897 5897 5897 5897 5897 5897 5898 5898 5899 5898 5897 5897 5897
5910 5910 5909 5909 5908 5908 5907 5907 5906 5905 5905 5904 5904 5903 5903 5902 5902 5901 5901 5900 5900 5899 5898 5897 5896 5895 5894 5893 5892 5891 5889 5888 5886 5885 5883 5882 5882 5881 5881 5881 5881 5881 5881 5881 5881 5881 5882 5883 5885 5886 5887 5888 5889 5890 5891 5891 5891 5892 5892 5892 5892 5893 5893 5893 5894 5894 5895 5895 5895 5896 5896 5897 5897 5897 5897 5897 5898 5897 5897 5897 5897 5898 5898 5898 5898 5898 5897 5897
5910 5909 5909 5908 5908 5907 5906 5906 5905 5905 5904 5903 5903 5902 5902 5901 5901 5900 5900 5899 5898 5898 5897 5896 5895 5894 5893 5892 5891 5889 5888 5887 5885 5884 5882 5881 5880 5880 5880 5879 5880 5880 5880 5880 5880 5880 5881 5883 5884 5885 5886 5887 5889 5890 5890 5891 5891 5892 5892 5893 5893 5894 5893 5893 5894 5895 5895 5895 5895 5897 5897 5897 5897 5897 5897 5897 5898 5897 5896 5897 5898 5897 5897 5897 5897 5898 5897 5897
5909 5908 5908 5907 5907 5906 5905 5905 5904 5904 5903 5902 5902 5901 5901 5900 5900 5899 5899 5898 5897 5896 5896 5895 5894 5893 5892 5891 5890 5888 5887 5885 5884 5882 5881 5880 5879 5879 5878 5878 5878 5879 5879 5879 5879 5880 5881 5882 5884 5884 5885 5887 5888 5889 5890 5891 5891 5892 5893 5893 5893 5893 5893 5893 5894 5895 5896 5896 5896 5897 5897 5897 5898 5898 5898 5898 5898 5897 5895 5896 5898 5897 5897 5897 5898 5898 5897 5897
5908 5907 5907 5906 5905 5905 5904 5904 5903 5903 5902 5901 5901 5900 5899 5899 5898 5898 5897 5897 5896 5895 5894 5894 5893 5892 5890 5889 5888 5887 5886 5884 5882 5881 5879 5878 5878 5877 5877 5877 5877 5877 5878 5878 5878 5879 5880 5881 5883 5883 5885 5886 5887 5888 5889 5890 5891 5892 5893 5893 5892 5893 5892 5893 5895 5896 5896 5896 5896 5897 5897 5897 5898 5898 5898 5897 5897 5896 5893 5892 5897 5899 5896 5896 5897 5897 5897 5897
5906 5906 5905 5905 5904 5904 5903 5902 5902 5902 5901 5900 5900 5899 5898 5898 5897 5897 5896 5895 5895 5894 5893 5892 5891 5891 5889 5888 5887 5886 5885 5883 5882 5880 5879 5878 5877 5876 5876 5876 5876 5876 5876 5877 5877 5878 5879 5880 5881 5882 5884 5885 5887 5888 5889 5890 5891 5892 5893 5892 5891 5892 5893 5894 5895 5896 5897 5897 5896 5897 5897 5897 5898 5898 5898 5898 5897 5896 5894 5891 5896 5899 5895 5895 5896 5897 5898 5897
5905 5905 5904 5904 5903 5903 5902 5901 5901 5900 5900 5899 5898 5898 5897 5897 5896 5895 5895 5894 5893 5892 5892 5891 5890 5889 5888 5887 5886 5885 5884 5882 5881 5879 5878 5877 5876 5875 5875 5874 5874 5875 5875 5875 5876 5877 5878 5879 5880 5881 5883 5884 5886 5887 5889 5891 5891 5891 5892 5892 5891 5892 5893 5894 5895 5896 5896 5896 5896 5896 5897 5898 5898 5898 5898 5898 5897 5897 5895 5892 5895 5897 5895 5895 5896 5895 5897 5897
5904 5904 5903 5903 5902 5901 5901 5900 5900 5899 5899 5898 5897 5897 5896 5895 5894 5894 5893 5892 5892 5891 5890 5890 5889 5888 5887 5886 5885 5884 5882 5881 5879 5878 5877 5876 5875 5874 5873 5873 5873 5873 5874 5874 5875 5876 5877 5878 5879 5880 5882 5884 5885 5886 5888 5890 5889 5889 5890 5891 5891 5892 5892 5893 5894 5895 5895 5896 5895 5895 5897 5898 5898 5898 5898 5898 5898 5897 5896 5893 5893 5896 5894 5894 5895 5894 5895 5896
5902 5902 5902 5901 5901 5900 5900 5899 5898 5898 5897 5897 5896 5895 5895 5894 5893 5892 5892 5891 5890 5890 5889 5888 5888 5887 5886 5885 5883 5882 5881 5880 5878 5877 5875 5874 5873 5873 5872 5872 5872 5872 5872 5873 5874 5874 5875 5876 5877 5879 5881 5883 5884 5885 5886 5886 5887 5888 5889 5890 5891 5891 5891 5892 5894 5894 5894 5894 5894 5895 5897 5898 5897 5897 5897 5897 5897 5897 5896 5893 5892 5894 5895 5894 5894 5894 5894 5895
5901 5900 5900 5900 5899 5899 5898 5897 5897 5896 5896 5895 5894 5894 5893 5892 5891 5891 5890 5889 5889 5888 5887 5887 5886 5885 5884 5884 5882 5881 5880 5878 5877 5875 5874 5873 5872 5872 5871 5871 5871 5871 5871 5872 5873 5873 5874 5875 5876 5879 5881 5881 5882 5883 5884 5885 5886 5888 5889 5890 5891 5891 5892 5892 5893 5893 5893 5893 5893 5894 5896 5897 5896 5896 5897 5897 5897 5896 5896 5894 5892 5892 5894 5895 5894 5894 5894 5895
5899 5899 5898 5898 5897 5897 5896 5896 5895 5894 5894 5893 5892 5892 5891 5891 5890 5889 5888 5888 5887 5886 5886 5885 5885 5884 5883 5882 5881 5880 5878 5877 5875 5874 5873 5872 5871 5870 5870 5870 5870 5870 5871 5871 5872 5873 5873 5874 5876 5878 5879 5879 5881 5882 5883 5885 5886 5887 5888 5890 5891 5891 5891 5891 5892 5892 5892 5892 5893 5894 5895 5896 5895 5896 5897 5897 5897 5896 5895 5895 5893 5892 5893 5894 5895 5894 5894 5894
5897 5896 5896 5895 5895 5895 5894 5894 5893 5892 5892 5891 5890 5890 5890 5889 5888 5887 5887 5886 5885 5885 5884 5884 5883 5883 5882 5881 5880 5879 5877 5876 5874 5873 5872 5871 5870 5869 5869 5869 5869 5869 5870 5870 5871 5872 5873 5874 5875 5876 5877 5878 5880 5881 5882 5883 5884 5886 5887 5889 5891 5891 5891 5891 5891 5892 5891 5891 5892 5892 5894 5895 5895 5895 5896 5896 5896 5896 5895 5895 5894 5893 5892 5893 5893 5893 5893 5894
5894 5893 5893 5893 5892 5892 5892 5891 5891 5890 5889 5889 5888 5887 5887 5887 5886 5886 5885 5884 5883 5883 5883 5882 5882 5881 5880 5880 5878 5877 5876 5875 5873 5872 5871 5870 5869 5869 5868 5868 5868 5868 5869 5869 5870 5871 5872 5873 5873 5874 5876 5878 5879 5880 5881 5882 5883 5885 5886 5889 5892 5891 5890 5890 5890 5890 5890 5891 5891 5891 5893 5893 5893 5894 5894 5895 5895 5895 5894 5894 5893 5893 5892 5892 5892 5892 5892 5892
5891 5890 5890 5890 5890 5889 5888 5888 5888 5887 5887 5886 5886 5885 5885 5884 5884 5884 5883 5882 5881 5881 5881 5880 5880 5879 5878 5878 5877 5876 5875 5874 5872 5871 5870 5870 5869 5869 5868 5868 5868 5868 5868 5869 5869 5870 5871 5872 5873 5875 5876 5877 5878 5879 5880 5881 5883 5885 5885 5887 5890 5889 5888 5889 5888 5889 5890 5890 5890 5891 5892 5892 5891 5891 5892 5893 5894 5893 5893 5893 5892 5892 5892 5892 5892 5892 5892 5892
5888 5887 5886 5886 5886 5886 5885 5885 5885 5884 5884 5884 5883 5883 5882 5882 5882 5881 5881 5880 5879 5879 5879 5878 5878 5877 5877 5876 5876 5875 5874 5873 5872 5871 5870 5869 5869 5868 5868 5867 5867 5868 5868 5868 5869 5869 5870 5871 5872 5874 5876 5877 5878 5879 5879 5881 5884 5886 5885 5886 5887 5887 5887 5888 5888 5889 5890 5890 5889 5889 5891 5891 5889 5889 5890 5890 5891 5892 5892 5892 5891 5891 5891 5891 5891 5891 5892 5891
5885 5884 5883 5882 5882 5882 5882 5881 5882 5881 5881 5881 5881 5880 5880 5879 5879 5879 5879 5878 5877 5877 5876 5876 5876 5875 5875 5875 5874 5873 5873 5872 5871 5870 5869 5869 5868 5868 5867 5867 5867 5867 5868 5868 5868 5869 5870 5871 5872 5873 5875 5876 5877 5878 5878 5880 5884 5887 5885 5885 5885 5885 5886 5887 5887 5888 5889 5889 5888 5888 5890 5890 5889 5888 5888 5888 5889 5890 5891 5891 5890 5890 5890 5890 5890 5890 5890 5890
5881 5880 5879 5878 5878 5878 5878 5878 5878 5878 5878 5877 5877 5877 5877 5877 5877 5876 5876 5875 5875 5875 5874 5874 5873 5873 5873 5873 5873 5872 5872 5871 5870 5869 5868 5868 5867 5867 5867 5867 5867 5867 5867 5868 5868 5869 5869 5870 5872 5873 5874 5875 5877 5878 5877 5879 5884 5886 5883 5883 5884 5884 5885 5886 5886 5887 5887 5887 5887 5887 5888 5889 5889 5888 5887 5887 5887 5887 5889 5889 5889 5889 5889 5889 5889 5889 5889 5889
5877 5876 5875 5874 5874 5874 5874 5874 5874 5874 5874 5874 5873 5874 5874 5874 5874 5874 5874 5873 5873 5873 5872 5872 5871 5871 5872 5872 5871 5871 5870 5870 5869 5868 5868 5867 5867 5867 5866 5866 5866 5867 5867 5868 5868 5869 5869 5870 5871 5872 5874 5876 5877 5876 5876 5878 5881 5882 5881 5882 5882 5882 5883 5884 5885 5885 5885 5886 5887 5886 5886 5887 5888 5887 5886 5886 5885 5886 5886 5887 5887 5887 5887 5887 5887 5887 5887 5887
5874 5873 5871 5870 5870 5870 5869 5870 5870 5870 5870 5870 5870 5870 5870 5871 5871 5871 5871 5870 5870 5871 5870 5869 5869 5869 5870 5870 5870 5870 5869 5869 5868 5868 5867 5866 5866 5866 5866 5866 5866 5866 5867 5867 5868 5868 5868 5869 5870 5871 5874 5876 5875 5874 5875 5877 5878 5879 5879 5880 5880 5881 5882 5882 5883 5883 5883 5885 5886 5884 5884 5886 5886 5886 5886 5885 5884 5884 5884 5884 5884 5884 5885 5885 5885 5886 5886 5886
5870 5870 5869 5867 5866 5866 5866 5866 5866 5866 5866 5866 5866 5867 5867 5867 5868 5868 5868 5868 5868 5868 5868 5867 5867 5867 5867 5868 5868 5868 5868 5867 5867 5866 5866 5865 5865 5865 5865 5865 5865 5866 5867 5867 5868 5868 5868 5869 5870 5871 5872 5873 5873 5874 5875 5875 5876 5877 5878 5878 5879 5880 5880 5881 5881 5881 5882 5884 5884 5883 5883 5884 5884 5884 5885 5884 5884 5883 5883 5882 5882 5882 5882 5883 5883 5884 5884 5884
5867 5867 5866 5864 5863 5863 5863 5863 5863 5862 5862 5863 5863 5863 5864 5864 5864 5865 5865 5865 5865 5865 5865 5865 5865 5865 5865 5865 5866 5866 5866 5866 5866 5865 5865 5864 5864 5864 5864 5865 5865 5866 5866 5867 5867 5868 5868 5869 5869 5870 5871 5871 5872 5873 5874 5874 5875 5876 5877 5878 5878 5879 5879 5880 5880 5880 5882 5884 5883 5882 5882 5882 5883 5883 5883 5883 5882 5882 5881 5881 5881 5880 5881 5881 5881 5881 5882 5883
5864 5863 5863 5862 5860 5860 5860 5860 5860 5859 5859 5859 5859 5860 5860 5860 5861 5862 5863 5862 5862 5862 5862 5863 5863 5863 5863 5864 5864 5864 5864 5864 5864 5864 5864 5864 5864 5864 5864 5864 5865 5866 5868 5869 5869 5868 5868 5868 5869 5870 5870 5871 5872 5873 5873 5873 5874 5875 5876 5877 5879 5880 5880 5880 5880 5881 5882 5882 5880 5880 5881 5881 5881 5881 5881 5881 5881 5881 5880 5880 5879 5879 5879 5879 5879 5880 5880 5881
5860 5860 5859 5859 5858 5857 5856 5857 5857 5856 5856 5856 5856 5857 5857 5857 5858 5860 5860 5858 5858 5859 5860 5861 5861 5861 5861 5861 5862 5862 5863 5863 5863 5863 5863 5863 5863 5863 5863 5863 5864 5866 5868 5869 5869 5869 5870 5868 5868 5869 5869 5870 5871 5874 5875 5874 5873 5874 5876 5877 5878 5880 5881 5881 5881 5882 5881 5880 5879 5879 5879 5879 5879 5880 5880 5880 5880 5880 5879 5879 5878 5878 5878 5878 5878 5878 5879 5879
5857 5856 5855 5855 5855 5854 5853 5853 5853 5853 5853 5853 5853 5853 5853 5854 5856 5857 5856 5854 5855 5857 5858 5859 5859 5859 5859 5859 5860 5860 5861 5861 5861 5861 5861 5861 5861 5861 5862 5862 5863 5864 5865 5866 5867 5869 5871 5870 5868 5868 5869 5869 5870 5872 5875 5874 5873 5873 5874 5875 5877 5879 5879 5880 5880 5880 5880 5878 5878 5878 5878 5878 5878 5878 5878 5878 5878 5878 5878 5878 5878 5877 5877 5877 5876 5877 5877 5878
5853 5853 5851 5851 5851 5850 5850 5849 5850 5850 5850 5850 5850 5849 5851 5852 5852 5852 5851 5851 5852 5854 5855 5857 5857 5857 5857 5857 5857 5858 5859 5859 5859 5860 5860 5860 5860 5860 5860 5861 5861 5862 5863 5865 5866 5866 5869 5869 5867 5867 5868 5869 5869 5870 5871 5872 5872 5872 5873 5874 5875 5876 5876 5876 5876 5877 5877 5877 5877 5877 5877 5876 5877 5877 5877 5877 5877 5877 5877 5877 5877 5876 5876 5876 5875 5875 5876 5876
5850 5850 5848 5847 5847 5847 5847 5846 5846 5846 5846 5846 5845 5846 5848 5849 5848 5848 5848 5848 5850 5851 5853 5854 5854 5855 5855 5855 5855 5856 5857 5857 5858 5858 5858 5859 5859 5859 5859 5859 5860 5861 5862 5864 5865 5865 5867 5867 5866 5867 5867 5868 5869 5869 5870 5871 5872 5872 5872 5872 5872 5873 5873 5874 5875 5875 5875 5876 5876 5876 5876 5875 5876 5876 5875 5875 5875 5876 5876 5876 5876 5875 5875 5875 5875 5874 5874 5874
5847 5846 5846 5845 5844 5843 5843 5843 5842 5842 5842 5842 5842 5843 5845 5844 5843 5844 5844 5845 5847 5849 5851 5851 5851 5852 5853 5853 5853 5854 5855 5855 5856 5857 5857 5857 5858 5858 5858 5858 5859 5860 5860 5862 5863 5864 5866 5866 5865 5866 5867 5867 5868 5869 5869 5870 5870 5871 5872 5871 5870 5871 5872 5873 5874 5874 5875 5875 5875 5875 5874 5874 5874 5874 5874 5873 5873 5874 5874 5874 5874 5874 5874 5874 5873 5873 5873 5873
5843 5843 5843 5842 5841 5840 5840 5839 5839 5839 5838 5838 5839 5839 5840 5839 5839 5839 5840 5842 5843 5845 5847 5848 5848 5849 5851 5852 5852 5851 5852 5854 5854 5855 5856 5856 5856 5856 5857 5857 5858 5859 5859 5861 5862 5862 5864 5865 5864 5865 5866 5866 5867 5868 5868 5869 5869 5870 5870 5870 5870 5870 5871 5872 5873 5873 5874 5875 5874 5873 5873 5873 5873 5873 5873 5872 5872 5872 5872 5873 5873 5872 5872 5872 5872 5872 5872 5872
5839 5839 5839 5839 5838 5837 5836 5836 5836 5835 5835 5835 5835 5835 5835 5835 5835 5835 5836 5838 5839 5841 5843 5844 5845 5847 5848 5849 5849 5848 5850 5851 5852 5853 5854 5854 5855 5855 5856 5856 5857 5858 5859 5860 5861 5861 5863 5864 5864 5863 5864 5866 5866 5867 5868 5867 5868 5869 5869 5869 5869 5869 5870 5870 5871 5872 5872 5873 5873 5873 5872 5871 5871 5871 5871 5871 5871 5870 5870 5871 5871 5871 5870 5871 5871 5870 5870 5870
5836 5835 5835 5835 5834 5834 5833 5832 5832 5832 5832 5832 5831 5831 5831 5831 5830 5831 5832 5833 5835 5836 5838 5840 5842 5843 5844 5845 5846 5846 5847 5849 5850 5851 5852 5853 5853 5854 5855 5855 5856 5857 5858 5858 5859 5860 5861 5863 5863 5862 5863 5865 5864 5865 5867 5866 5866 5867 5868 5868 5868 5869 5869 5869 5870 5870 5871 5871 5872 5873 5872 5869 5869 5869 5869 5869 5869 5869 5869 5868 5868 5869 5869 5869 5869 5869 5869 5868
5833 5832 5832 5832 5831 5830 5830 5829 5828 5828 5828 5828 5827 5827 5827 5827 5827 5827 5828 5829 5830 5832 5834 5837 5839 5840 5841 5842 5842 5842 5844 5846 5848 5849 5850 5851 5852 5853 5853 5854 5854 5855 5856 5857 5858 5859 5859 5861 5863 5862 5863 5863 5863 5863 5864 5865 5865 5866 5867 5867 5867 5868 5868 5869 5870 5869 5869 5870 5870 5871 5871 5868 5867 5867 5867 5866 5867 5866 5866 5866 5866 5866 5866 5866 5866 5866 5867 5866
5830 5829 5829 5828 5828 5827 5826 5825 5825 5825 5824 5824 5824 5823 5823 5824 5823 5823 5824 5826 5826 5827 5830 5833 5835 5836 5838 5839 5838 5839 5841 5843 5845 5847 5848 5849 5851 5851 5851 5852 5853 5853 5854 5855 5856 5857 5858 5859 5861 5861 5861 5861 5861 5861 5862 5863 5863 5864 5865 5866 5866 5867 5867 5868 5869 5868 5868 5868 5868 5868 5868 5867 5865 5865 5864 5864 5864 5864 5864 5864 5864 5864 5864 5864 5864 5864 5864 5864
5827 5826 5825 5825 5824 5824 5823 5822 5822 5821 5821 5821 5820 5820 5820 5820 5820 5820 5821 5822 5822 5823 5825 5827 5830 5833 5834 5834 5835 5836 5838 5840 5842 5844 5846 5847 5848 5849 5849 5850 5851 5852 5853 5854 5854 5855 5856 5857 5858 5859 5859 5859 5859 5859 5860 5860 5861 5862 5863 5864 5864 5865 5865 5866 5866 5866 5866 5867 5866 5866 5867 5865 5864 5863 5862 5862 5862 5862 5862 5862 5862 5862 5861 5861 5861 5861 5862 5862
5823 5823 5822 5821 5820 5820 5819 5818 5818 5817 5817 5817 5816 5816 5817 5817 5817 5817 5817 5817 5817 5818 5820 5823 5826 5828 5829 5831 5832 5833 5835 5837 5839 5841 5843 5845 5846 5847 5848 5848 5849 5850 5851 5852 5852 5854 5854 5855 5855 5856 5856 5857 5857 5857 5857 5858 5859 5859 5860 5861 5862 5863 5863 5864 5864 5864 5865 5865 5864 5865 5865 5864 5862 5861 5861 5860 5860 5860 5860 5860 5859 5859 5859 5859 5859 5859 5859 5859
5819 5818 5818 5817 5816 5816 5815 5815 5814 5813 5813 5813 5812 5812 5813 5813 5814 5814 5814 5813 5813 5814 5816 5818 5821 5823 5825 5827 5828 5830 5832 5834 5836 5838 5840 5842 5843 5844 5845 5847 5847 5848 5849 5850 5851 5852 5852 5852 5853 5854 5855 5855 5855 5855 5856 5856 5856 5857 5858 5858 5859 5860 5861 5862 5862 5863 5863 5862 5863 5863 5863 5861 5860 5860 5859 5859 5859 5858 5858 5858 5857 5857 5857 5857 5857 5857 5857 5857
5815 5814 5813 5813 5812 5812 5811 5810 5810 5809 5809 5808 5808 5808 5809 5809 5810 5810 5810 5810 5809 5810 5812 5814 5816 5818 5821 5823 5825 5827 5829 5830 5832 5835 5837 5839 5840 5841 5843 5844 5845 5846 5847 5848 5849 5850 5850 5850 5852 5852 5852 5853 5853 5853 5854 5854 5854 5854 5855 5856 5857 5857 5858 5859 5860 5860 5860 5860 5860 5860 5860 5859 5859 5859 5858 5857 5857 5857 5856 5856 5855 5855 5855 5855 5855 5855 5855 5855
5811 5810 5809 5808 5808 5807 5807 5806 5805 5804 5804 5804 5803 5804 5805 5805 5805 5806 5806 5805 5806 5807 5808 5810 5812 5814 5816 5818 5820 5823 5825 5826 5828 5831 5834 5836 5837 5838 5840 5841 5843 5844 5845 5846 5847 5848 5849 5849 5849 5850 5850 5850 5851 5851 5852 5852 5852 5852 5852 5853 5854 5854 5855 5856 5857 5857 5857 5858 5858 5858 5857 5857 5857 5857 5857 5856 5855 5855 5855 5854 5853 5853 5853 5853 5853 5853 5853 5852
5807 5805 5804 5804 5803 5802 5802 5801 5801 5800 5800 5799 5799 5800 5800 5800 5801 5801 5801 5801 5802 5803 5804 5806 5808 5809 5810 5813 5816 5819 5821 5823 5824 5827 5830 5832 5834 5835 5837 5838 5840 5841 5842 5843 5844 5846 5847 5847 5846 5847 5848 5848 5849 5849 5849 5850 5850 5850 5850 5850 5851 5851 5852 5853 5853 5854 5854 5855 5855 5855 5855 5855 5854 5854 5854 5854 5854 5853 5853 5852 5851 5851 5851 5850 5850 5850 5850 5850
5802 5801 5800 5799 5798 5797 5797 5796 5796 5795 5795 5795 5795 5795 5795 5795 5796 5796 5796 5797 5798 5799 5800 5802 5803 5804 5806 5809 5812 5815 5817 5819 5820 5823 5826 5829 5831 5832 5833 5835 5837 5838 5839 5841 5842 5843 5844 5843 5843 5845 5846 5846 5846 5847 5846 5846 5847 5847 5847 5848 5848 5848 5849 5849 5850 5850 5851 5852 5852 5852 5852 5852 5852 5852 5852 5852 5852 5851 5850 5850 5849 5849 5848 5848 5848 5848 5848 5848
5796 5795 5795 5794 5793 5792 5791 5791 5791 5790 5790 5790 5790 5790 5790 5791 5791 5791 5792 5792 5793 5794 5796 5797 5798 5799 5802 5805 5808 5810 5812 5814 5816 5819 5822 5825 5827 5829 5831 5832 5833 5835 5837 5838 5839 5841 5841 5840 5841 5843 5842 5842 5843 5844 5844 5844 5843 5844 5844 5845 5845 5846 5846 5846 5847 5848 5849 5849 5850 5850 5850 5849 5850 5850 5850 5850 5850 5849 5848 5848 5847 5846 5846 5846 5845 5845 5845 5845
5791 5790 5790 5789 5788 5787 5786 5785 5785 5785 5785 5785 5785 5785 5786 5785 5786 5787 5787 5787 5788 5789 5791 5793 5794 5795 5798 5800 5802 5804 5807 5810 5812 5815 5818 5821 5823 5825 5827 5828 5830 5832 5834 5835 5836 5837 5838 5837 5838 5840 5839 5839 5840 5841 5841 5841 5841 5841 5841 5841 5842 5842 5843 5843 5844 5845 5846 5846 5847 5847 5847 5847 5847 5847 5847 5847 5847 5847 5846 5845 5844 5844 5844 5843 5843 5843 5843 5843
5786 5785 5784 5783 5782 5782 5780 5780 5779 5779 5779 5780 5780 5780 5781 5781 5781 5782 5782 5782 5783 5784 5786 5789 5790 5791 5793 5795 5797 5799 5803 5806 5808 5810 5813 5816 5819 5822 5823 5825 5827 5829 5830 5832 5833 5833 5834 5834 5835 5836 5837 5836 5837 5838 5838 5838 5839 5838 5838 5839 5839 5839 5840 5840 5841 5842 5843 5843 5844 5844 5844 5844 5844 5845 5845 5845 5844 5844 5844 5843 5842 5841 5841 5841 5840 5840 5840 5840